| time (UTC) | temp F | wind direction | speed MPH | gust MPH | rain 1hr in | rain 24hr in | rain mn in | humidity % | barometer mb |
| 20260905234004 | 53 | 281 | 2.0 | 3.0 | 0.00 | 0.02 | 0.00 | 78 | 1026.4 |
| 20260905233504 | 53 | 281 | 2.0 | 2.0 | 0.00 | 0.02 | 0.00 | 78 | 1026.5 |
| 20260905233005 | 54 | 281 | 1.0 | 3.0 | 0.00 | 0.02 | 0.00 | 76 | 1026.4 |
| 20260905232505 | 54 | 281 | 3.0 | 3.0 | 0.00 | 0.02 | 0.00 | 76 | 1026.5 |
| 20260905232004 | 54 | 281 | 3.0 | 3.0 | 0.00 | 0.02 | 0.00 | 75 | 1026.4 |
| 20260905231005 | 55 | 280 | 2.0 | 3.0 | 0.00 | 0.02 | 0.00 | 74 | 1026.2 |
| 20260905230504 | 54 | 279 | 3.0 | 6.0 | 0.00 | 0.02 | 0.00 | 74 | 1026.1 |
| 20260905230005 | 55 | 286 | 2.0 | 3.0 | 0.00 | 0.02 | 0.00 | 73 | 1026.1 |
| 20260905225504 | 55 | 286 | 2.0 | 3.0 | 0.00 | 0.02 | 0.00 | 73 | 1026.1 |
| 20260905225005 | 55 | 287 | 2.0 | 3.0 | 0.00 | 0.02 | 0.00 | 73 | 1026.1 |
| 20260905224504 | 55 | 288 | 3.0 | 3.0 | 0.00 | 0.02 | 0.00 | 72 | 1025.9 |
| 20260905223504 | 56 | 304 | 2.0 | 3.0 | 0.00 | 0.02 | 0.00 | 70 | 1025.8 |
| 20260905223004 | 57 | 305 | 2.0 | 3.0 | 0.00 | 0.02 | 0.00 | 70 | 1025.8 |
| 20260905222504 | 57 | 306 | 1.0 | 3.0 | 0.00 | 0.02 | 0.00 | 70 | 1025.7 |
| 20260905222004 | 57 | 340 | 3.0 | 8.0 | 0.00 | 0.02 | 0.00 | 70 | 1025.6 |
| 20260905221504 | 58 | 296 | 2.0 | 3.0 | 0.00 | 0.02 | 0.00 | 69 | 1025.5 |
| 20260905221005 | 57 | 297 | 2.0 | 3.0 | 0.00 | 0.02 | 0.00 | 69 | 1025.4 |
| 20260905220504 | 57 | 312 | 2.0 | 3.0 | 0.00 | 0.02 | 0.00 | 69 | 1025.5 |
| 20260905220004 | 57 | 317 | 2.0 | 3.0 | 0.00 | 0.02 | 0.00 | 69 | 1025.5 |
| 20260905214504 | 56 | 285 | 3.0 | 3.0 | 0.00 | 0.02 | 0.02 | 71 | 1025.4 |
| 20260905214004 | 57 | 296 | 3.0 | 3.0 | 0.00 | 0.02 | 0.02 | 69 | 1025.4 |
| 20260905213504 | 58 | 296 | 2.0 | 3.0 | 0.00 | 0.02 | 0.02 | 68 | 1025.3 |
| 20260905213005 | 58 | 296 | 3.0 | 5.0 | 0.00 | 0.02 | 0.02 | 68 | 1025.3 |
| 20260905212505 | 58 | 302 | 1.0 | 2.0 | 0.00 | 0.02 | 0.02 | 68 | 1025.2 |
| 20260905211505 | 58 | 304 | 2.0 | 3.0 | 0.00 | 0.02 | 0.02 | 68 | 1025.2 |
| 20260905210004 | 59 | 296 | 2.0 | 3.0 | 0.00 | 0.02 | 0.02 | 67 | 1025.0 |
| 20260905205004 | 58 | 306 | 2.0 | 3.0 | 0.00 | 0.02 | 0.02 | 67 | 1025.0 |
| 20260905204504 | 58 | 325 | 2.0 | 3.0 | 0.00 | 0.02 | 0.02 | 68 | 1024.9 |
| 20260905204004 | 59 | 333 | 1.0 | 2.0 | 0.00 | 0.02 | 0.02 | 67 | 1024.9 |
| 20260905203504 | 59 | 333 | 1.0 | 2.0 | 0.00 | 0.02 | 0.02 | 67 | 1024.9 |
| 20260905203004 | 59 | 333 | 2.0 | 3.0 | 0.00 | 0.02 | 0.02 | 67 | 1024.9 |
| 20260905202505 | 59 | 349 | 3.0 | 5.0 | 0.00 | 0.02 | 0.02 | 67 | 1024.9 |
| 20260905202005 | 58 | 323 | 2.0 | 3.0 | 0.00 | 0.02 | 0.02 | 68 | 1024.8 |
| 20260905201004 | 59 | 318 | 2.0 | 3.0 | 0.00 | 0.02 | 0.02 | 67 | 1024.7 |
| 20260905200504 | 59 | 318 | 2.0 | 3.0 | 0.00 | 0.02 | 0.02 | 66 | 1024.5 |
| 20260905200005 | 60 | 318 | 2.0 | 3.0 | 0.00 | 0.02 | 0.02 | 65 | 1024.6 |
| 20260905195505 | 61 | 318 | 2.0 | 3.0 | 0.00 | 0.02 | 0.02 | 64 | 1024.5 |
| 20260905195004 | 61 | 314 | 2.0 | 3.0 | 0.00 | 0.02 | 0.02 | 64 | 1024.4 |
| 20260905194504 | 61 | 317 | 2.0 | 3.0 | 0.00 | 0.02 | 0.02 | 64 | 1024.4 |
| 20260905194005 | 62 | 313 | 3.0 | 3.0 | 0.00 | 0.02 | 0.02 | 63 | 1024.3 |
| 20260905193504 | 62 | 321 | 2.0 | 3.0 | 0.00 | 0.02 | 0.02 | 63 | 1024.4 |
| 20260905192504 | 62 | 316 | 2.0 | 3.0 | 0.00 | 0.02 | 0.02 | 63 | 1024.3 |
| 20260905192004 | 61 | 354 | 3.0 | 6.0 | 0.00 | 0.02 | 0.02 | 64 | 1024.2 |
| 20260905191504 | 61 | 322 | 3.0 | 5.0 | 0.00 | 0.02 | 0.02 | 63 | 1024.2 |
| 20260905190504 | 61 | 342 | 3.0 | 6.0 | 0.00 | 0.02 | 0.02 | 64 | 1024.0 |
| 20260905190005 | 62 | 325 | 2.0 | 3.0 | 0.00 | 0.02 | 0.02 | 63 | 1023.9 |
| 20260905185505 | 62 | 325 | 2.0 | 6.0 | 0.00 | 0.02 | 0.02 | 63 | 1023.9 |
| 20260905184504 | 62 | 316 | 2.0 | 3.0 | 0.00 | 0.02 | 0.02 | 62 | 1023.8 |
| 20260905184004 | 62 | 300 | 2.0 | 3.0 | 0.00 | 0.02 | 0.02 | 62 | 1023.7 |
| 20260905183505 | 63 | 300 | 2.0 | 3.0 | 0.00 | 0.02 | 0.02 | 61 | 1023.6 |
| 20260905183004 | 63 | 306 | 2.0 | 3.0 | 0.00 | 0.02 | 0.02 | 61 | 1023.5 |
| 20260905182504 | 63 | 306 | 2.0 | 3.0 | 0.00 | 0.02 | 0.02 | 60 | 1023.4 |
| 20260905182004 | 63 | 297 | 1.0 | 3.0 | 0.00 | 0.02 | 0.02 | 60 | 1023.4 |
| 20260905181005 | 64 | 306 | 1.0 | 3.0 | 0.00 | 0.02 | 0.02 | 58 | 1023.2 |
| 20260905180505 | 64 | 306 | 0.0 | 2.0 | 0.00 | 0.02 | 0.02 | 57 | 1023.2 |
| 20260905180004 | 64 | 306 | 2.0 | 3.0 | 0.00 | 0.02 | 0.02 | 57 | 1023.0 |
| 20260905175504 | 65 | 305 | 2.0 | 3.0 | 0.00 | 0.02 | 0.02 | 57 | 1023.0 |
| 20260905175004 | 65 | 305 | 2.0 | 3.0 | 0.00 | 0.02 | 0.02 | 56 | 1023.0 |
| 20260905174004 | 66 | 309 | 3.0 | 8.0 | 0.00 | 0.02 | 0.02 | 55 | 1023.0 |
| 20260905173504 | 66 | 313 | 2.0 | 6.0 | 0.00 | 0.02 | 0.02 | 54 | 1023.0 |
| 20260905172504 | 67 | 19 | 1.0 | 3.0 | 0.00 | 0.02 | 0.02 | 53 | 1022.8 |
| 20260905172004 | 67 | 19 | 1.0 | 3.0 | 0.00 | 0.02 | 0.02 | 51 | 1022.8 |
| 20260905171504 | 68 | 10 | 3.0 | 8.0 | 0.00 | 0.02 | 0.02 | 51 | 1022.8 |
| 20260905171005 | 68 | 4 | 5.0 | 7.0 | 0.00 | 0.02 | 0.02 | 51 | 1022.7 |
| 20260905170504 | 67 | 285 | 1.0 | 8.0 | 0.00 | 0.02 | 0.02 | 51 | 1022.7 |
| 20260905170004 | 68 | 258 | 2.0 | 8.0 | 0.00 | 0.02 | 0.02 | 49 | 1022.7 |
| 20260905165504 | 68 | 14 | 3.0 | 6.0 | 0.00 | 0.02 | 0.02 | 49 | 1022.6 |
| 20260905164504 | 68 | 355 | 1.0 | 3.0 | 0.00 | 0.02 | 0.02 | 48 | 1022.6 |
| 20260905164004 | 69 | 351 | 2.0 | 10.0 | 0.00 | 0.02 | 0.02 | 48 | 1022.5 |
| 20260905163504 | 69 | 12 | 6.0 | 14.0 | 0.00 | 0.02 | 0.02 | 47 | 1022.5 |
| 20260905163004 | 69 | 345 | 4.0 | 13.0 | 0.00 | 0.02 | 0.02 | 49 | 1022.4 |
| 20260905161504 | 70 | 13 | 5.0 | 10.0 | 0.00 | 0.02 | 0.02 | 47 | 1022.0 |
| 20260905161005 | 70 | 13 | 4.0 | 9.0 | 0.00 | 0.02 | 0.02 | 47 | 1021.9 |
| 20260905160505 | 70 | 28 | 5.0 | 12.0 | 0.00 | 0.02 | 0.02 | 47 | 1021.8 |
| 20260905160004 | 70 | 334 | 4.0 | 9.0 | 0.00 | 0.02 | 0.02 | 46 | 1021.8 |
| 20260905155504 | 70 | 359 | 5.0 | 12.0 | 0.00 | 0.02 | 0.02 | 46 | 1021.7 |
| 20260905155004 | 71 | 327 | 5.0 | 12.0 | 0.00 | 0.02 | 0.02 | 46 | 1021.6 |
| 20260905154504 | 71 | 298 | 4.0 | 12.0 | 0.00 | 0.02 | 0.02 | 46 | 1021.6 |
| 20260905154004 | 71 | 341 | 4.0 | 10.0 | 0.00 | 0.02 | 0.02 | 46 | 1021.6 |
| 20260905153504 | 71 | 348 | 4.0 | 12.0 | 0.00 | 0.02 | 0.02 | 46 | 1021.5 |
| 20260905153004 | 71 | 283 | 3.0 | 10.0 | 0.00 | 0.02 | 0.02 | 46 | 1021.5 |
| 20260905152004 | 71 | 352 | 4.0 | 12.0 | 0.00 | 0.02 | 0.02 | 47 | 1021.5 |
| 20260905151504 | 71 | 293 | 4.0 | 12.0 | 0.00 | 0.02 | 0.02 | 46 | 1021.4 |
| 20260905151005 | 72 | 324 | 4.0 | 10.0 | 0.00 | 0.02 | 0.02 | 45 | 1021.3 |
| 20260905150504 | 72 | 325 | 7.0 | 18.0 | 0.00 | 0.02 | 0.02 | 45 | 1021.3 |
| 20260905150004 | 72 | 357 | 5.0 | 17.0 | 0.00 | 0.02 | 0.02 | 46 | 1021.3 |
| 20260905145504 | 72 | 43 | 3.0 | 6.0 | 0.00 | 0.02 | 0.02 | 46 | 1021.3 |
| 20260905145004 | 72 | 7 | 3.0 | 9.0 | 0.00 | 0.02 | 0.02 | 45 | 1021.3 |
| 20260905144504 | 72 | 327 | 7.0 | 12.0 | 0.00 | 0.02 | 0.02 | 44 | 1021.3 |
| 20260905143504 | 72 | 322 | 6.0 | 12.0 | 0.00 | 0.02 | 0.02 | 45 | 1021.2 |
| 20260905143004 | 73 | 310 | 6.0 | 13.0 | 0.00 | 0.02 | 0.02 | 44 | 1021.1 |
| 20260905142504 | 73 | 353 | 9.0 | 17.0 | 0.00 | 0.02 | 0.02 | 44 | 1021.2 |
| 20260905142004 | 73 | 13 | 3.0 | 8.0 | 0.00 | 0.02 | 0.02 | 44 | 1021.1 |
| 20260905141504 | 73 | 354 | 4.0 | 9.0 | 0.00 | 0.02 | 0.02 | 45 | 1021.1 |
| 20260905141005 | 73 | 13 | 6.0 | 14.0 | 0.00 | 0.02 | 0.02 | 45 | 1021.1 |
| 20260905140504 | 73 | 17 | 6.0 | 14.0 | 0.00 | 0.02 | 0.02 | 45 | 1021.2 |
| 20260905140004 | 73 | 315 | 6.0 | 13.0 | 0.00 | 0.02 | 0.02 | 47 | 1021.2 |
| 20260905135504 | 73 | 355 | 7.0 | 12.0 | 0.00 | 0.02 | 0.02 | 46 | 1021.1 |
| 20260905135004 | 74 | 347 | 6.0 | 13.0 | 0.00 | 0.02 | 0.02 | 47 | 1021.2 |
| 20260905134504 | 73 | 338 | 7.0 | 13.0 | 0.00 | 0.02 | 0.02 | 46 | 1021.2 |
| 20260905134004 | 73 | 328 | 8.0 | 13.0 | 0.00 | 0.02 | 0.02 | 45 | 1021.2 |
| 20260905133504 | 73 | 333 | 5.0 | 12.0 | 0.00 | 0.02 | 0.02 | 46 | 1021.1 |
| 20260905133004 | 73 | 10 | 8.0 | 13.0 | 0.00 | 0.02 | 0.02 | 45 | 1021.2 |
| 20260905132504 | 74 | 304 | 2.0 | 10.0 | 0.00 | 0.02 | 0.02 | 44 | 1021.2 |
| 20260905132004 | 73 | 25 | 7.0 | 13.0 | 0.00 | 0.02 | 0.02 | 45 | 1021.2 |
| 20260905131004 | 73 | 177 | 2.0 | 7.0 | 0.00 | 0.02 | 0.02 | 45 | 1021.1 |
| 20260905130504 | 73 | 295 | 4.0 | 12.0 | 0.00 | 0.02 | 0.02 | 48 | 1021.1 |
| 20260905130004 | 72 | 47 | 6.0 | 13.0 | 0.00 | 0.02 | 0.02 | 47 | 1021.1 |
| 20260905125504 | 73 | 325 | 5.0 | 15.0 | 0.00 | 0.02 | 0.02 | 49 | 1021.2 |
| 20260905125004 | 73 | 289 | 5.0 | 10.0 | 0.00 | 0.02 | 0.02 | 47 | 1021.2 |
| 20260905124504 | 73 | 352 | 4.0 | 13.0 | 0.00 | 0.02 | 0.02 | 47 | 1021.2 |
| 20260905124005 | 74 | 289 | 3.0 | 12.0 | 0.00 | 0.02 | 0.02 | 48 | 1021.2 |
| 20260905123504 | 74 | 297 | 6.0 | 12.0 | 0.00 | 0.02 | 0.02 | 47 | 1021.2 |
| 20260905123004 | 72 | 208 | 4.0 | 10.0 | 0.00 | 0.02 | 0.02 | 46 | 1021.2 |
| 20260905121504 | 73 | 213 | 6.0 | 14.0 | 0.00 | 0.02 | 0.02 | 46 | 1021.1 |
| 20260905121005 | 72 | 183 | 3.0 | 8.0 | 0.00 | 0.02 | 0.02 | 50 | 1021.0 |
| 20260905120503 | 72 | 276 | 5.0 | 12.0 | 0.00 | 0.02 | 0.02 | 50 | 1021.0 |
| 20260905120004 | 73 | 241 | 4.0 | 12.0 | 0.00 | 0.02 | 0.02 | 50 | 1021.0 |
| 20260905115004 | 72 | 218 | 2.0 | 9.0 | 0.00 | 0.02 | 0.02 | 50 | 1020.9 |
| 20260905114503 | 72 | 170 | 2.0 | 8.0 | 0.00 | 0.02 | 0.02 | 49 | 1020.9 |
| 20260905114004 | 71 | 4 | 7.0 | 12.0 | 0.00 | 0.02 | 0.02 | 53 | 1021.0 |
| 20260905113504 | 71 | 345 | 7.0 | 16.0 | 0.00 | 0.02 | 0.02 | 54 | 1021.1 |
| 20260905113004 | 70 | 337 | 3.0 | 12.0 | 0.00 | 0.02 | 0.02 | 53 | 1021.1 |
| 20260905112504 | 71 | 330 | 3.0 | 12.0 | 0.00 | 0.02 | 0.02 | 54 | 1021.1 |
| 20260905112003 | 70 | 354 | 5.0 | 12.0 | 0.00 | 0.02 | 0.02 | 53 | 1021.1 |
| 20260905111504 | 70 | 206 | 5.0 | 9.0 | 0.00 | 0.02 | 0.02 | 54 | 1021.1 |
| 20260905111005 | 70 | 296 | 6.0 | 12.0 | 0.00 | 0.02 | 0.02 | 56 | 1021.0 |
| 20260905110504 | 70 | 198 | 5.0 | 9.0 | 0.00 | 0.02 | 0.02 | 54 | 1021.0 |
| 20260905110004 | 71 | 341 | 9.0 | 13.0 | 0.00 | 0.02 | 0.02 | 54 | 1021.1 |
| 20260905105003 | 70 | 232 | 3.0 | 10.0 | 0.00 | 0.02 | 0.02 | 57 | 1020.9 |
| 20260905104504 | 70 | 317 | 8.0 | 15.0 | 0.00 | 0.02 | 0.02 | 56 | 1021.0 |
| 20260905104004 | 70 | 240 | 4.0 | 12.0 | 0.00 | 0.02 | 0.02 | 58 | 1021.1 |
| 20260905103504 | 70 | 199 | 6.0 | 12.0 | 0.00 | 0.02 | 0.02 | 57 | 1020.9 |
| 20260905103004 | 70 | 185 | 3.0 | 9.0 | 0.00 | 0.02 | 0.02 | 59 | 1020.8 |
| 20260905102504 | 70 | 283 | 3.0 | 7.0 | 0.00 | 0.02 | 0.02 | 62 | 1020.8 |
| 20260905102004 | 69 | 236 | 7.0 | 14.0 | 0.00 | 0.02 | 0.02 | 61 | 1020.7 |
| 20260905101504 | 68 | 324 | 3.0 | 8.0 | 0.00 | 0.02 | 0.02 | 62 | 1020.9 |
| 20260905101004 | 68 | 346 | 3.0 | 9.0 | 0.00 | 0.02 | 0.02 | 62 | 1020.9 |
| 20260905100504 | 68 | 216 | 2.0 | 14.0 | 0.00 | 0.02 | 0.02 | 63 | 1020.9 |
| 20260905100004 | 68 | 334 | 9.0 | 14.0 | 0.00 | 0.02 | 0.02 | 62 | 1021.0 |
| 20260905095004 | 69 | 333 | 3.0 | 8.0 | 0.00 | 0.02 | 0.02 | 63 | 1020.9 |
| 20260905093504 | 68 | 334 | 6.0 | 12.0 | 0.00 | 0.02 | 0.02 | 65 | 1021.0 |
| 20260905093005 | 68 | 332 | 5.0 | 12.0 | 0.00 | 0.02 | 0.02 | 64 | 1020.9 |
| 20260905092504 | 67 | 330 | 5.0 | 10.0 | 0.00 | 0.02 | 0.02 | 66 | 1020.9 |
| 20260905092004 | 66 | 242 | 3.0 | 8.0 | 0.00 | 0.02 | 0.02 | 68 | 1020.9 |
| 20260905091504 | 65 | 354 | 5.0 | 12.0 | 0.00 | 0.02 | 0.02 | 67 | 1021.0 |
| 20260905091004 | 65 | 256 | 2.0 | 10.0 | 0.00 | 0.02 | 0.02 | 69 | 1020.9 |
| 20260905090503 | 66 | 331 | 5.0 | 10.0 | 0.00 | 0.02 | 0.02 | 68 | 1020.8 |
| 20260905085504 | 66 | 307 | 2.0 | 10.0 | 0.00 | 0.02 | 0.02 | 71 | 1020.5 |
| 20260905084004 | 66 | 339 | 2.0 | 8.0 | 0.00 | 0.02 | 0.02 | 73 | 1020.4 |
| 20260905083504 | 65 | 14 | 4.0 | 10.0 | 0.00 | 0.02 | 0.02 | 73 | 1020.3 |
| 20260905083004 | 65 | 357 | 6.0 | 12.0 | 0.00 | 0.02 | 0.02 | 72 | 1020.3 |
| 20260905082504 | 67 | 8 | 5.0 | 12.0 | 0.00 | 0.02 | 0.02 | 71 | 1020.2 |
| 20260905082003 | 67 | 350 | 3.0 | 7.0 | 0.00 | 0.02 | 0.02 | 70 | 1020.1 |
| 20260905081005 | 65 | 220 | 2.0 | 6.0 | 0.00 | 0.02 | 0.02 | 74 | 1020.1 |
| 20260905080503 | 65 | 317 | 2.0 | 9.0 | 0.00 | 0.02 | 0.02 | 75 | 1020.1 |
| 20260905080003 | 65 | 318 | 6.0 | 10.0 | 0.00 | 0.02 | 0.02 | 74 | 1020.0 |
| 20260905074504 | 65 | 190 | 1.0 | 8.0 | 0.00 | 0.02 | 0.02 | 79 | 1019.9 |
| 20260905074004 | 64 | 189 | 3.0 | 7.0 | 0.00 | 0.02 | 0.02 | 80 | 1019.9 |
| 20260905073504 | 64 | 215 | 1.0 | 9.0 | 0.00 | 0.02 | 0.02 | 80 | 1019.9 |
| 20260905073004 | 64 | 250 | 4.0 | 8.0 | 0.00 | 0.02 | 0.02 | 80 | 1019.8 |
| 20260905072503 | 64 | 210 | 1.0 | 3.0 | 0.00 | 0.02 | 0.02 | 81 | 1019.8 |
| 20260905072003 | 64 | 343 | 1.0 | 3.0 | 0.00 | 0.02 | 0.02 | 82 | 1019.8 |
| 20260905071005 | 63 | 205 | 3.0 | 7.0 | 0.00 | 0.02 | 0.02 | 83 | 1019.7 |
| 20260905070504 | 62 | 217 | 0.0 | 2.0 | 0.00 | 0.02 | 0.02 | 84 | 1019.6 |
| 20260905070004 | 62 | 217 | 0.0 | 3.0 | 0.00 | 0.02 | 0.02 | 84 | 1019.7 |
| 20260905065504 | 62 | 217 | 3.0 | 5.0 | 0.00 | 0.02 | 0.02 | 83 | 1019.6 |
| 20260905065003 | 62 | 223 | 4.0 | 8.0 | 0.00 | 0.02 | 0.02 | 83 | 1019.6 |
| 20260905064504 | 63 | 210 | 2.0 | 3.0 | 0.00 | 0.02 | 0.02 | 84 | 1019.5 |
| 20260905064004 | 62 | 217 | 0.0 | 2.0 | 0.00 | 0.02 | 0.02 | 85 | 1019.6 |
| 20260905063504 | 61 | 219 | 0.0 | 2.0 | 0.00 | 0.02 | 0.02 | 86 | 1019.6 |
| 20260905063004 | 61 | 220 | 1.0 | 3.0 | 0.00 | 0.02 | 0.02 | 85 | 1019.6 |
| 20260905062504 | 61 | 266 | 2.0 | 3.0 | 0.00 | 0.02 | 0.02 | 85 | 1019.6 |
| 20260905062003 | 61 | 277 | 2.0 | 3.0 | 0.00 | 0.02 | 0.02 | 86 | 1019.5 |
| 20260905061504 | 61 | 217 | 0.0 | 1.0 | 0.00 | 0.02 | 0.02 | 86 | 1019.4 |
| 20260905061004 | 60 | 217 | 1.0 | 3.0 | 0.00 | 0.02 | 0.02 | 87 | 1019.3 |
| 20260905060504 | 60 | 211 | 2.0 | 3.0 | 0.00 | 0.02 | 0.02 | 87 | 1019.1 |
| 20260905060004 | 60 | 208 | 1.0 | 3.0 | 0.00 | 0.02 | 0.02 | 86 | 1019.0 |
| 20260905055504 | 60 | 211 | 0.0 | 0.0 | 0.00 | 0.02 | 0.02 | 86 | 1019.0 |
| 20260905055004 | 60 | 211 | 0.0 | 0.0 | 0.00 | 0.02 | 0.02 | 88 | 1019.1 |
| 20260905054504 | 59 | 211 | 0.0 | 0.0 | 0.00 | 0.02 | 0.02 | 88 | 1019.0 |
| 20260905054004 | 58 | 211 | 0.0 | 0.0 | 0.00 | 0.02 | 0.02 | 88 | 1018.9 |
| 20260905053504 | 58 | 211 | 0.0 | 0.0 | 0.00 | 0.02 | 0.02 | 87 | 1018.9 |
| 20260905053003 | 58 | 211 | 0.0 | 0.0 | 0.00 | 0.02 | 0.02 | 87 | 1018.8 |
| 20260905052504 | 59 | 211 | 0.0 | 2.0 | 0.00 | 0.02 | 0.02 | 87 | 1018.7 |
| 20260905052004 | 59 | 211 | 0.0 | 0.0 | 0.00 | 0.02 | 0.02 | 87 | 1018.7 |
| 20260905051504 | 59 | 211 | 0.0 | 0.0 | 0.00 | 0.02 | 0.02 | 87 | 1018.7 |
| 20260905051004 | 59 | 211 | 0.0 | 2.0 | 0.00 | 0.02 | 0.02 | 87 | 1018.6 |
| 20260905050504 | 59 | 211 | 0.0 | 2.0 | 0.00 | 0.02 | 0.02 | 87 | 1018.5 |
| 20260905050005 | 59 | 211 | 0.0 | 2.0 | 0.00 | 0.02 | 0.02 | 87 | 1018.5 |
| 20260905045506 | 59 | 211 | 0.0 | 2.0 | 0.00 | 0.02 | 0.02 | 86 | 1018.4 |
| 20260905044505 | 59 | 211 | 0.0 | 0.0 | 0.00 | 0.02 | 0.02 | 86 | 1018.4 |
| 20260905044005 | 59 | 211 | 0.0 | 2.0 | 0.00 | 0.02 | 0.02 | 86 | 1018.2 |
| 20260905043505 | 60 | 211 | 0.0 | 2.0 | 0.00 | 0.02 | 0.02 | 86 | 1018.2 |
| 20260905043005 | 60 | 211 | 0.0 | 2.0 | 0.00 | 0.02 | 0.02 | 86 | 1018.2 |
| 20260905042005 | 60 | 211 | 1.0 | 2.0 | 0.00 | 0.02 | 0.02 | 86 | 1018.0 |
| 20260905041505 | 60 | 211 | 0.0 | 1.0 | 0.00 | 0.02 | 0.02 | 86 | 1018.0 |
| 20260905041006 | 59 | 211 | 0.0 | 2.0 | 0.00 | 0.02 | 0.02 | 86 | 1018.0 |
| 20260905040505 | 59 | 211 | 0.0 | 2.0 | 0.00 | 0.02 | 0.02 | 86 | 1017.9 |
| 20260905040006 | 59 | 211 | 2.0 | 3.0 | 0.00 | 0.02 | 0.02 | 86 | 1017.8 |
| 20260905035505 | 59 | 209 | 1.0 | 3.0 | 0.00 | 0.02 | 0.02 | 86 | 1017.8 |
| 20260905035006 | 59 | 209 | 2.0 | 3.0 | 0.00 | 0.02 | 0.02 | 86 | 1017.8 |
| 20260905034005 | 59 | 207 | 1.0 | 2.0 | 0.00 | 0.02 | 0.02 | 87 | 1017.8 |
| 20260905033504 | 59 | 206 | 1.0 | 2.0 | 0.00 | 0.02 | 0.02 | 87 | 1017.8 |
| 20260905033004 | 59 | 206 | 0.0 | 1.0 | 0.00 | 0.02 | 0.02 | 87 | 1017.7 |
| 20260905032504 | 59 | 206 | 0.0 | 2.0 | 0.00 | 0.02 | 0.02 | 87 | 1017.7 |
| 20260905031505 | 59 | 205 | 1.0 | 1.0 | 0.00 | 0.02 | 0.02 | 88 | 1017.5 |
| 20260905030505 | 58 | 205 | 0.0 | 0.0 | 0.00 | 0.02 | 0.02 | 88 | 1017.5 |
| 20260905030004 | 58 | 205 | 0.0 | 2.0 | 0.00 | 0.02 | 0.02 | 88 | 1017.5 |
| 20260905025504 | 58 | 205 | 0.0 | 2.0 | 0.00 | 0.02 | 0.02 | 88 | 1017.4 |
| 20260905024504 | 58 | 205 | 1.0 | 2.0 | 0.00 | 0.02 | 0.02 | 88 | 1017.2 |
| 20260905024005 | 58 | 205 | 0.0 | 1.0 | 0.00 | 0.02 | 0.02 | 88 | 1017.0 |
| 20260905023504 | 58 | 205 | 0.0 | 1.0 | 0.00 | 0.02 | 0.02 | 88 | 1017.1 |
| 20260905023004 | 58 | 205 | 1.0 | 1.0 | 0.00 | 0.02 | 0.02 | 88 | 1017.2 |
| 20260905021505 | 58 | 205 | 1.0 | 1.0 | 0.01 | 0.02 | 0.02 | 87 | 1017.1 |
| 20260905021005 | 58 | 205 | 0.0 | 2.0 | 0.01 | 0.02 | 0.02 | 87 | 1017.1 |
| 20260905020004 | 58 | 205 | 0.0 | 2.0 | 0.01 | 0.02 | 0.02 | 87 | 1017.0 |
| 20260905015504 | 58 | 205 | 0.0 | 2.0 | 0.01 | 0.02 | 0.02 | 87 | 1016.9 |
| 20260905015005 | 58 | 205 | 1.0 | 3.0 | 0.02 | 0.02 | 0.02 | 86 | 1016.8 |
| 20260905014005 | 59 | 202 | 1.0 | 2.0 | 0.02 | 0.02 | 0.02 | 86 | 1016.9 |
| 20260905013504 | 59 | 202 | 1.0 | 2.0 | 0.02 | 0.02 | 0.02 | 85 | 1016.9 |
| 20260905013004 | 59 | 201 | 2.0 | 3.0 | 0.02 | 0.02 | 0.02 | 85 | 1016.9 |
| 20260905012504 | 59 | 294 | 0.0 | 2.0 | 0.01 | 0.01 | 0.01 | 85 | 1017.1 |
| 20260905011005 | 59 | 288 | 1.0 | 2.0 | 0.01 | 0.01 | 0.01 | 83 | 1017.0 |
| 20260905010505 | 59 | 296 | 0.0 | 2.0 | 0.01 | 0.01 | 0.01 | 82 | 1017.2 |
| 20260905010005 | 60 | 296 | 1.0 | 2.0 | 0.01 | 0.01 | 0.01 | 81 | 1017.0 |
| 20260905005505 | 60 | 331 | 0.0 | 3.0 | 0.01 | 0.01 | 0.01 | 80 | 1016.9 |
| 20260905005004 | 60 | 344 | 1.0 | 5.0 | 0.00 | 0.00 | 0.00 | 79 | 1016.7 |
| 20260905004504 | 61 | 275 | 2.0 | 3.0 | 0.00 | 0.00 | 0.00 | 77 | 1016.5 |
| 20260905004005 | 61 | 335 | 0.0 | 2.0 | 0.00 | 0.00 | 0.00 | 76 | 1016.3 |
| 20260905003505 | 61 | 335 | 1.0 | 3.0 | 0.00 | 0.00 | 0.00 | 76 | 1016.4 |
| 20260905003004 | 61 | 311 | 3.0 | 5.0 | 0.00 | 0.00 | 0.00 | 76 | 1016.5 |
| 20260905002504 | 61 | 243 | 1.0 | 3.0 | 0.00 | 0.00 | 0.00 | 76 | 1016.6 |
| 20260905002005 | 61 | 233 | 1.0 | 2.0 | 0.00 | 0.00 | 0.00 | 76 | 1016.3 |
| 20260905001505 | 61 | 328 | 0.0 | 2.0 | 0.00 | 0.00 | 0.00 | 76 | 1016.5 |
| 20260905001005 | 61 | 328 | 0.0 | 2.0 | 0.00 | 0.00 | 0.00 | 76 | 1016.5 |
| 20260905000005 | 62 | 0 | 1.0 | 5.0 | 0.00 | 0.00 | 0.00 | 76 | 1016.4 |
| 20260904235505 | 62 | 335 | 3.0 | 8.0 | 0.00 | 0.00 | 0.00 | 76 | 1016.4 |
| 20260904234505 | 62 | 350 | 2.0 | 5.0 | 0.00 | 0.00 | 0.00 | 76 | 1016.3 |